Location: Ash Swamp
(41.5170°N, 74.6157°W)
Time: 16:39:38
(UTC+00:00)

Lacrosse 5 - Pass Details

Date: 14 July 2020
Orbit: 717 x 720 km, 57.0° (Epoch: 02 August)

Event Time Altitude Azimuth Distance (km) Brightness Sun altitude
Exits shadow 03:28:58 11° 79° (ENE) 2,101 4.1 -23.1°
Drops below altitude 10° 03:29:21 10° 75° (ENE) 2,201 4.3 -23.1°
Sets 03:32:18 0° 59° (ENE) 3,126 5.3 -23.4°
